DMSP 5D-2 F13 DEB, 40499

Orbit data source: Space-Track

DMSP 5D-2 F13 DEB, 40499 is space debris in SSO originally from a launch on Fri, 24 Mar 1995 UTC launched from the Air Force Western Test Range (AFWTR). Debris objects in space refer to the collection of defunct objects orbiting the Earth. Examples of debris include non-operational satellites, rocket bodies, and fragments generated from explosions, collisions, or faulty payload assembly.

Loading next visibility...
Identifier
40499, 1995-015CN
Orbit
SSO
Country
Flag of USUS
Related business
Manufacturer
Unknown
Mission
Spacecraft
Bus & Motor
Unknown
Mass
Unknown
Launch date (UTC)
1995-03-24 (31 years ago)
Launch vehicle
Unknown
Launch site
Air Force Western Test Range (AFWTR)
Object type
Payload
Rocket body
Debris
Shape & HBR
Unknown shape, 0.1 m
Radar Cross Section
Small (<0.1 m²)

Expand to show TLE details & history
Last TLE update: 3 days ago

TLE from 3 days ago
0 DMSP 5D-2 F13 DEB
1 40499U 95015CN  26130.56307512  .00002803  00000-0  89906-3 0  9995
2 40499  98.6848 169.0880 0006592   9.8614 350.2702 14.40267821579794
Epoch: 2026-05-10T13:30Z
TLE epoch observation values (Epoch: 2026-05-10T13:30:49.690Z)
Latitude
-0.00001°
Longitude
98.0166°
Altitude
755.92 km
Speed
7.479 km/s
True Right ascension
11h 16m 21s
True Declination
0° 00' 00"
Sunlit
Object was in full shadow at epoch
Visualization orbit readout
Latitude
Unknown
Longitude
Unknown
Altitude
Unknown
Speed
Unknown
Apparent Right ascension
Unknown
Apparent Declination
Unknown
Sunlit
N/A
Visualization observer readout
Local Sidereal Time
10:59:17
Azimuth
Unknown
Elevation
Unknown
Doppler factor
Unknown
Orbital elements
Apogee altitude
759.446 km
Perigee altitude
750.042 km
Semi-major axis
7,132.881 km
Eccentricity
0.00066
Inclination
98.6848°
RAAN
169.088°
Arg. of periapsis
9.8614°
True anomaly
350.25742°
Mean anomaly
350.2702°
Eccentric anomaly
350.26381°
Mean motion
3.60285 °/min
Orbital period
99.92 mins
BSTAR
0.00089906

Documentation

Showing up to 5 results
|